Time,TemperatureF,DewpointF,PressureIn,WindDirection,WindDirectionDegrees,WindSpeedMPH,WindSpeedGustMPH,Humidity,HourlyPrecipIn,Conditions,Clouds,dailyrainin,SoftwareType,DateUTC
2013-08-29 00:02:00,74.2,71.1,30.03,SSE,155,0.0,0.0,90,0.00,,---,0.00,VWS V14.00,2013-08-29 05:02:00,
2013-08-29 00:07:00,74.0,70.9,30.03,SSE,155,0.0,0.0,90,0.00,,---,0.00,VWS V14.00,2013-08-29 05:07:00,
2013-08-29 00:12:00,74.0,70.9,30.03,SSE,155,0.0,0.0,90,0.00,,---,0.00,VWS V14.00,2013-08-29 05:12:00,
2013-08-29 00:17:00,73.9,70.8,30.03,SSE,155,0.0,0.0,90,0.00,,---,0.00,VWS V14.00,2013-08-29 05:17:00,
2013-08-29 00:22:00,73.9,70.8,30.03,SSE,155,0.0,0.0,90,0.00,,---,0.00,VWS V14.00,2013-08-29 05:22:00,
2013-08-29 00:27:00,73.9,70.8,30.03,SSE,155,0.0,0.0,90,0.00,,---,0.00,VWS V14.00,2013-08-29 05:27:00,
2013-08-29 00:32:00,73.9,70.8,30.03,SSE,155,0.0,0.0,90,0.00,,---,0.00,VWS V14.00,2013-08-29 05:32:00,
2013-08-29 00:37:00,73.7,70.6,30.03,SSE,155,0.0,0.0,90,0.00,,---,0.00,VWS V14.00,2013-08-29 05:37:00,
2013-08-29 00:42:00,73.5,70.7,30.03,SSE,155,0.0,0.0,91,0.00,,---,0.00,VWS V14.00,2013-08-29 05:42:00,
2013-08-29 00:47:00,73.3,70.5,30.03,SSE,155,0.0,0.0,91,0.00,,---,0.00,VWS V14.00,2013-08-29 05:47:00,
2013-08-29 00:52:00,73.3,70.5,30.03,SSE,155,0.0,0.0,91,0.00,,---,0.00,VWS V14.00,2013-08-29 05:52:00,
2013-08-29 00:57:00,73.2,70.4,30.03,SSE,155,0.0,0.0,91,0.00,,---,0.00,VWS V14.00,2013-08-29 05:57:00,
2013-08-29 01:02:00,73.2,70.7,30.03,SSE,155,0.0,0.0,92,0.00,,---,0.00,VWS V14.00,2013-08-29 06:02:00,
2013-08-29 01:07:00,73.0,70.5,30.03,SSE,155,0.0,0.0,92,0.00,,---,0.00,VWS V14.00,2013-08-29 06:07:00,
2013-08-29 01:12:00,73.0,70.5,30.03,SSE,155,0.0,0.0,92,0.00,,---,0.00,VWS V14.00,2013-08-29 06:12:00,
2013-08-29 01:17:00,72.7,70.2,30.02,SSE,155,0.0,0.0,92,0.00,,---,0.00,VWS V14.00,2013-08-29 06:17:00,
2013-08-29 01:22:00,72.5,70.1,30.02,SSE,155,0.0,0.0,92,0.00,,---,0.00,VWS V14.00,2013-08-29 06:22:00,
2013-08-29 01:27:00,72.3,69.8,30.03,SSE,155,0.0,0.0,92,0.00,,---,0.00,VWS V14.00,2013-08-29 06:27:00,
2013-08-29 01:32:00,72.1,69.7,30.03,SSE,155,0.0,0.0,92,0.00,,---,0.00,VWS V14.00,2013-08-29 06:32:00,
2013-08-29 01:37:00,72.1,69.7,30.03,SSE,155,0.0,0.0,92,0.00,,---,0.00,VWS V14.00,2013-08-29 06:37:00,
2013-08-29 01:42:00,72.0,69.6,30.03,SSE,155,0.0,0.0,92,0.00,,---,0.00,VWS V14.00,2013-08-29 06:42:00,
2013-08-29 01:47:00,72.0,69.6,30.03,SSE,155,0.0,0.0,92,0.00,,---,0.00,VWS V14.00,2013-08-29 06:47:00,
2013-08-29 01:52:00,72.1,69.7,30.03,SSE,155,0.0,0.0,92,0.00,,---,0.00,VWS V14.00,2013-08-29 06:52:00,
2013-08-29 01:57:00,72.0,69.6,30.03,SSE,155,0.0,0.0,92,0.00,,---,0.00,VWS V14.00,2013-08-29 06:57:00,
2013-08-29 02:02:00,72.0,69.6,30.02,SSE,155,0.0,0.0,92,0.00,,---,0.00,VWS V14.00,2013-08-29 07:02:00,
2013-08-29 02:07:00,72.0,69.6,30.02,SSE,155,0.0,0.0,92,0.00,,---,0.00,VWS V14.00,2013-08-29 07:07:00,
2013-08-29 02:12:00,71.8,69.3,30.02,SSE,155,0.0,0.0,92,0.00,,---,0.00,VWS V14.00,2013-08-29 07:12:00,
2013-08-29 02:17:00,71.8,69.7,30.02,SSE,155,0.0,0.0,93,0.00,,---,0.00,VWS V14.00,2013-08-29 07:17:00,
2013-08-29 02:22:00,71.8,69.3,30.02,SSE,155,0.0,0.0,92,0.00,,---,0.00,VWS V14.00,2013-08-29 07:22:00,
2013-08-29 02:27:00,71.6,69.2,30.03,SSE,155,0.0,0.0,92,0.00,,---,0.00,VWS V14.00,2013-08-29 07:27:00,
2013-08-29 02:32:00,71.6,69.5,30.03,SSE,155,0.0,0.0,93,0.00,,---,0.00,VWS V14.00,2013-08-29 07:32:00,
2013-08-29 02:37:00,71.6,69.5,30.03,SSE,155,0.0,0.0,93,0.00,,---,0.00,VWS V14.00,2013-08-29 07:37:00,
2013-08-29 02:42:00,71.5,69.4,30.03,SSE,155,0.0,0.0,93,0.00,,---,0.00,VWS V14.00,2013-08-29 07:42:00,
2013-08-29 02:47:00,71.5,69.4,30.03,SSE,155,0.0,0.0,93,0.00,,---,0.00,VWS V14.00,2013-08-29 07:47:00,
2013-08-29 02:52:00,71.3,69.2,30.03,SSE,155,0.0,0.0,93,0.00,,---,0.00,VWS V14.00,2013-08-29 07:52:00,
2013-08-29 02:57:00,71.3,69.2,30.04,SSE,155,0.0,0.0,93,0.00,,---,0.00,VWS V14.00,2013-08-29 07:57:00,
2013-08-29 03:02:00,71.3,69.2,30.03,SSE,155,0.0,0.0,93,0.00,,---,0.00,VWS V14.00,2013-08-29 08:02:00,
2013-08-29 03:07:00,71.1,69.0,30.03,SSE,155,0.0,0.0,93,0.00,,---,0.00,VWS V14.00,2013-08-29 08:07:00,
2013-08-29 03:12:00,71.1,69.0,30.03,SSE,155,0.0,0.0,93,0.00,,---,0.00,VWS V14.00,2013-08-29 08:12:00,
2013-08-29 03:17:00,71.1,69.0,30.03,SSE,155,0.0,0.0,93,0.00,,---,0.00,VWS V14.00,2013-08-29 08:17:00,
2013-08-29 03:22:00,71.1,69.0,30.03,SSE,155,0.0,0.0,93,0.00,,---,0.00,VWS V14.00,2013-08-29 08:22:00,
2013-08-29 03:27:00,70.9,68.8,30.03,SSE,155,0.0,0.0,93,0.00,,---,0.00,VWS V14.00,2013-08-29 08:27:00,
2013-08-29 03:32:00,70.9,68.8,30.03,SSE,155,0.0,0.0,93,0.00,,---,0.00,VWS V14.00,2013-08-29 08:32:00,
2013-08-29 03:37:00,70.8,69.0,30.03,SSE,155,0.0,0.0,94,0.00,,---,0.00,VWS V14.00,2013-08-29 08:37:00,
2013-08-29 03:42:00,70.8,69.0,30.03,SSE,155,0.0,0.0,94,0.00,,---,0.00,VWS V14.00,2013-08-29 08:42:00,
2013-08-29 03:47:00,70.8,69.0,30.03,SSE,155,0.0,0.0,94,0.00,,---,0.00,VWS V14.00,2013-08-29 08:47:00,
2013-08-29 03:52:00,70.6,68.8,30.03,SSE,155,0.0,0.0,94,0.00,,---,0.00,VWS V14.00,2013-08-29 08:52:00,
2013-08-29 03:57:00,70.8,69.0,30.03,SSE,155,0.0,0.0,94,0.00,,---,0.00,VWS V14.00,2013-08-29 08:57:00,
2013-08-29 04:02:00,70.6,68.8,30.03,SSE,155,0.0,0.0,94,0.00,,---,0.00,VWS V14.00,2013-08-29 09:02:00,
2013-08-29 04:07:00,70.4,68.6,30.03,SSE,155,0.0,0.0,94,0.00,,---,0.00,VWS V14.00,2013-08-29 09:07:00,
2013-08-29 04:12:00,70.4,68.6,30.03,SSE,155,0.0,0.0,94,0.00,,---,0.00,VWS V14.00,2013-08-29 09:12:00,
2013-08-29 04:17:00,70.3,68.5,30.03,SSE,155,0.0,0.0,94,0.00,,---,0.00,VWS V14.00,2013-08-29 09:17:00,
2013-08-29 04:22:00,70.3,68.5,30.03,SSE,155,0.0,0.0,94,0.00,,---,0.00,VWS V14.00,2013-08-29 09:22:00,
2013-08-29 04:27:00,70.1,68.3,30.03,SSE,155,0.0,0.0,94,0.00,,---,0.00,VWS V14.00,2013-08-29 09:27:00,
2013-08-29 04:32:00,70.1,68.3,30.03,SSE,155,0.0,0.0,94,0.00,,---,0.00,VWS V14.00,2013-08-29 09:32:00,
2013-08-29 04:37:00,69.9,68.1,30.03,SSE,155,0.0,0.0,94,0.00,,---,0.00,VWS V14.00,2013-08-29 09:37:00,
2013-08-29 04:42:00,69.9,68.1,30.03,SSE,155,0.0,0.0,94,0.00,,---,0.00,VWS V14.00,2013-08-29 09:42:00,
2013-08-29 04:47:00,69.9,68.1,30.03,SSE,155,0.0,0.0,94,0.00,,---,0.00,VWS V14.00,2013-08-29 09:47:00,
2013-08-29 04:52:00,69.8,68.0,30.03,SSE,155,0.0,0.0,94,0.00,,---,0.00,VWS V14.00,2013-08-29 09:52:00,
2013-08-29 04:57:00,69.6,67.8,30.03,SSE,155,0.0,0.0,94,0.00,,---,0.00,VWS V14.00,2013-08-29 09:57:00,
2013-08-29 05:02:00,69.6,67.8,30.04,SSE,155,0.0,0.0,94,0.00,,---,0.00,VWS V14.00,2013-08-29 10:02:00,
2013-08-29 05:07:00,69.6,67.8,30.04,SSE,155,0.0,0.0,94,0.00,,---,0.00,VWS V14.00,2013-08-29 10:07:00,
2013-08-29 05:12:00,69.4,67.6,30.04,SSE,155,0.0,0.0,94,0.00,,---,0.00,VWS V14.00,2013-08-29 10:12:00,
2013-08-29 05:17:00,69.4,67.6,30.04,SSE,155,0.0,0.0,94,0.00,,---,0.00,VWS V14.00,2013-08-29 10:17:00,
2013-08-29 05:22:00,69.3,67.5,30.04,SSE,155,0.0,0.0,94,0.00,,---,0.00,VWS V14.00,2013-08-29 10:22:00,
2013-08-29 05:27:00,69.3,67.5,30.04,SSE,155,0.0,0.0,94,0.00,,---,0.00,VWS V14.00,2013-08-29 10:27:00,
2013-08-29 05:32:00,69.3,67.5,30.04,SSE,155,0.0,0.0,94,0.00,,---,0.00,VWS V14.00,2013-08-29 10:32:00,
2013-08-29 05:37:00,69.3,67.5,30.04,SSE,155,0.0,0.0,94,0.00,,---,0.00,VWS V14.00,2013-08-29 10:37:00,
2013-08-29 05:42:00,69.3,67.5,30.04,SSE,155,0.0,0.0,94,0.00,,---,0.00,VWS V14.00,2013-08-29 10:42:00,
2013-08-29 05:47:00,69.3,67.5,30.04,SSE,155,0.0,0.0,94,0.00,,---,0.00,VWS V14.00,2013-08-29 10:47:00,
2013-08-29 05:52:00,69.1,67.3,30.04,SSE,155,0.0,0.0,94,0.00,,---,0.00,VWS V14.00,2013-08-29 10:52:00,
2013-08-29 05:57:00,69.1,67.3,30.04,SSE,155,0.0,0.0,94,0.00,,---,0.00,VWS V14.00,2013-08-29 10:57:00,
2013-08-29 06:01:00,69.3,67.8,30.04,SSE,155,0.0,0.0,95,0.00,,---,0.00,VWS V14.00,2013-08-29 11:01:00,
2013-08-29 06:06:00,69.3,67.8,30.04,SSE,155,0.0,0.0,95,0.00,,---,0.00,VWS V14.00,2013-08-29 11:06:00,
2013-08-29 06:12:00,69.1,67.6,30.05,SSE,155,0.0,0.0,95,0.00,,---,0.00,VWS V14.00,2013-08-29 11:12:00,
2013-08-29 06:17:00,69.1,67.6,30.05,SSE,155,0.0,0.0,95,0.00,,---,0.00,VWS V14.00,2013-08-29 11:17:00,
2013-08-29 06:21:00,69.1,67.6,30.05,SSE,155,0.0,0.0,95,0.00,,---,0.00,VWS V14.00,2013-08-29 11:21:00,
2013-08-29 06:26:00,68.9,67.4,30.05,SSE,155,0.0,0.0,95,0.00,,---,0.00,VWS V14.00,2013-08-29 11:26:00,
2013-08-29 06:31:00,68.9,67.4,30.05,SSE,155,0.0,0.0,95,0.00,,---,0.00,VWS V14.00,2013-08-29 11:31:00,
2013-08-29 06:36:00,68.8,67.3,30.06,SSE,155,0.0,0.0,95,0.00,,---,0.00,VWS V14.00,2013-08-29 11:36:00,
2013-08-29 06:41:00,68.8,67.3,30.06,SSE,155,0.0,0.0,95,0.00,,---,0.00,VWS V14.00,2013-08-29 11:41:00,
2013-08-29 06:46:00,68.8,67.3,30.06,SSE,155,0.0,0.0,95,0.00,,---,0.00,VWS V14.00,2013-08-29 11:46:00,
2013-08-29 06:51:00,68.9,67.4,30.06,SSE,155,0.0,0.0,95,0.00,,---,0.00,VWS V14.00,2013-08-29 11:51:00,
2013-08-29 06:56:00,69.1,67.6,30.06,SSE,155,0.0,0.0,95,0.00,,---,0.00,VWS V14.00,2013-08-29 11:56:00,
2013-08-29 07:01:00,69.1,67.6,30.06,SSE,155,0.0,0.0,95,0.00,,---,0.00,VWS V14.00,2013-08-29 12:01:00,
2013-08-29 07:06:00,69.1,67.3,30.06,SSE,155,0.0,0.0,94,0.00,,---,0.00,VWS V14.00,2013-08-29 12:06:00,
2013-08-29 07:11:00,69.1,67.6,30.06,SSE,155,0.0,0.0,95,0.00,,---,0.00,VWS V14.00,2013-08-29 12:11:00,
2013-08-29 07:16:00,69.6,68.1,30.06,SSE,155,0.0,0.0,95,0.00,,---,0.00,VWS V14.00,2013-08-29 12:16:00,
2013-08-29 07:21:00,69.6,68.1,30.07,SSE,155,0.0,0.0,95,0.00,,---,0.00,VWS V14.00,2013-08-29 12:21:00,
2013-08-29 07:26:00,69.4,67.6,30.07,SSE,155,0.0,0.0,94,0.00,,---,0.00,VWS V14.00,2013-08-29 12:26:00,
2013-08-29 07:31:00,69.4,67.6,30.07,SSE,155,0.0,0.0,94,0.00,,---,0.00,VWS V14.00,2013-08-29 12:31:00,
2013-08-29 07:36:00,69.4,67.6,30.07,SSE,155,0.0,0.0,94,0.00,,---,0.00,VWS V14.00,2013-08-29 12:36:00,
2013-08-29 07:41:00,69.4,67.6,30.07,SSE,155,0.0,0.0,94,0.00,,---,0.00,VWS V14.00,2013-08-29 12:41:00,
2013-08-29 07:46:00,69.8,68.0,30.07,SSE,155,0.0,0.0,94,0.00,,---,0.00,VWS V14.00,2013-08-29 12:46:00,
2013-08-29 07:51:00,70.1,68.3,30.07,SSE,155,0.0,0.0,94,0.00,,---,0.00,VWS V14.00,2013-08-29 12:51:00,
2013-08-29 07:56:00,70.8,68.7,30.07,SSE,155,0.0,0.0,93,0.00,,---,0.00,VWS V14.00,2013-08-29 12:56:00,
2013-08-29 08:01:00,71.1,68.7,30.07,SSE,155,0.0,0.0,92,0.00,,---,0.00,VWS V14.00,2013-08-29 13:01:00,
2013-08-29 08:06:00,71.6,69.2,30.06,SSE,155,0.0,0.0,92,0.00,,---,0.00,VWS V14.00,2013-08-29 13:06:00,
2013-08-29 08:11:00,72.1,69.3,30.07,SSE,155,0.0,0.0,91,0.00,,---,0.00,VWS V14.00,2013-08-29 13:11:00,
2013-08-29 08:16:00,72.3,69.2,30.06,SSE,155,0.0,0.0,90,0.00,,---,0.00,VWS V14.00,2013-08-29 13:16:00,
2013-08-29 08:21:00,72.5,69.4,30.07,SSE,155,0.0,0.0,90,0.00,,---,0.00,VWS V14.00,2013-08-29 13:21:00,
2013-08-29 08:26:00,72.8,69.7,30.06,SSE,155,0.0,0.0,90,0.00,,---,0.00,VWS V14.00,2013-08-29 13:26:00,
2013-08-29 08:31:00,73.2,70.1,30.06,SSE,155,0.0,0.0,90,0.00,,---,0.00,VWS V14.00,2013-08-29 13:31:00,
2013-08-29 08:36:00,73.7,70.3,30.06,SSE,155,0.0,0.0,89,0.00,,---,0.00,VWS V14.00,2013-08-29 13:36:00,
2013-08-29 08:41:00,74.0,70.6,30.07,SSE,155,0.0,0.0,89,0.00,,---,0.00,VWS V14.00,2013-08-29 13:41:00,
2013-08-29 08:46:00,74.4,70.6,30.07,SSE,155,0.0,0.0,88,0.00,,---,0.00,VWS V14.00,2013-08-29 13:46:00,
2013-08-29 08:51:00,74.6,70.8,30.07,SSE,155,0.0,0.0,88,0.00,,---,0.00,VWS V14.00,2013-08-29 13:51:00,
2013-08-29 08:56:00,74.9,70.8,30.07,SSE,155,0.0,0.0,87,0.00,,---,0.00,VWS V14.00,2013-08-29 13:56:00,
2013-08-29 09:01:00,75.8,71.3,30.07,SSE,155,0.0,0.0,86,0.00,,---,0.00,VWS V14.00,2013-08-29 14:01:00,
2013-08-29 09:06:00,76.1,71.6,30.07,SSE,155,0.0,0.0,86,0.00,,---,0.00,VWS V14.00,2013-08-29 14:06:00,
2013-08-29 09:11:00,76.3,71.8,30.07,SSE,155,0.0,0.0,86,0.00,,---,0.00,VWS V14.00,2013-08-29 14:11:00,
2013-08-29 09:16:00,76.7,72.2,30.06,SSE,155,0.0,0.0,86,0.00,,---,0.00,VWS V14.00,2013-08-29 14:16:00,
2013-08-29 09:21:00,77.4,72.2,30.06,SSE,155,0.0,0.0,84,0.00,,---,0.00,VWS V14.00,2013-08-29 14:21:00,
2013-08-29 09:26:00,78.1,72.9,30.06,SSE,155,0.0,0.0,84,0.00,,---,0.00,VWS V14.00,2013-08-29 14:26:00,
2013-08-29 09:31:00,79.0,73.0,30.06,SSE,155,0.0,0.0,82,0.00,,---,0.00,VWS V14.00,2013-08-29 14:31:00,
2013-08-29 09:36:00,80.1,73.4,30.06,SSE,155,0.0,0.0,80,0.00,,---,0.00,VWS V14.00,2013-08-29 14:36:00,
2013-08-29 09:41:00,80.7,74.0,30.06,SSE,155,0.0,0.0,80,0.00,,---,0.00,VWS V14.00,2013-08-29 14:41:00,
2013-08-29 09:46:00,81.1,74.0,30.06,SSE,155,0.0,0.0,79,0.00,,---,0.00,VWS V14.00,2013-08-29 14:46:00,
2013-08-29 09:51:00,81.2,73.7,30.06,SSE,155,0.0,0.0,78,0.00,,---,0.00,VWS V14.00,2013-08-29 14:51:00,
2013-08-29 09:56:00,81.1,72.8,30.06,SSE,155,0.0,0.0,76,0.00,,---,0.00,VWS V14.00,2013-08-29 14:56:00,
2013-08-29 10:01:00,81.4,73.1,30.06,SSE,155,0.0,0.0,76,0.00,,---,0.00,VWS V14.00,2013-08-29 15:01:00,
2013-08-29 10:06:00,82.0,73.7,30.06,ESE,109,0.0,0.0,76,0.00,,---,0.00,VWS V14.00,2013-08-29 15:06:00,
2013-08-29 10:11:00,82.4,73.7,30.06,ESE,109,0.0,0.0,75,0.00,,---,0.00,VWS V14.00,2013-08-29 15:11:00,
2013-08-29 10:16:00,82.8,73.3,30.06,ESE,109,0.0,0.0,73,0.00,,---,0.00,VWS V14.00,2013-08-29 15:16:00,
2013-08-29 10:21:00,82.8,72.9,30.06,ESE,109,0.0,0.0,72,0.00,,---,0.00,VWS V14.00,2013-08-29 15:21:00,
2013-08-29 10:26:00,83.0,73.5,30.06,ESE,109,0.0,0.0,73,0.00,,---,0.00,VWS V14.00,2013-08-29 15:26:00,
2013-08-29 10:31:00,83.6,74.0,30.06,ESE,109,0.0,0.0,73,0.00,,---,0.00,VWS V14.00,2013-08-29 15:31:00,
2013-08-29 10:36:00,84.0,73.2,30.06,ESE,109,0.0,0.0,70,0.00,,---,0.00,VWS V14.00,2013-08-29 15:36:00,
2013-08-29 10:41:00,84.3,73.0,30.06,ESE,109,0.0,0.0,69,0.00,,---,0.00,VWS V14.00,2013-08-29 15:41:00,
2013-08-29 10:46:00,85.1,72.9,30.06,SE,143,0.0,0.0,67,0.00,,---,0.00,VWS V14.00,2013-08-29 15:46:00,
2013-08-29 10:51:00,85.9,72.8,30.06,SE,143,0.0,0.0,65,0.00,,---,0.00,VWS V14.00,2013-08-29 15:51:00,
2013-08-29 10:56:00,86.1,73.0,30.05,SE,143,0.0,0.0,65,0.00,,---,0.00,VWS V14.00,2013-08-29 15:56:00,
2013-08-29 11:01:00,86.5,72.9,30.05,SE,143,0.0,0.0,64,0.00,,---,0.00,VWS V14.00,2013-08-29 16:01:00,
2013-08-29 11:06:00,87.0,72.9,30.05,SE,143,1.0,1.0,63,0.00,,---,0.00,VWS V14.00,2013-08-29 16:06:00,
2013-08-29 11:11:00,87.0,72.4,30.05,SE,143,2.0,3.0,62,0.00,,---,0.00,VWS V14.00,2013-08-29 16:11:00,
2013-08-29 11:16:00,87.0,71.9,30.05,SE,143,0.0,0.0,61,0.00,,---,0.00,VWS V14.00,2013-08-29 16:16:00,
2013-08-29 11:21:00,87.6,73.0,30.05,SE,143,0.0,0.0,62,0.00,,---,0.00,VWS V14.00,2013-08-29 16:21:00,
2013-08-29 11:26:00,88.0,72.4,30.05,SE,144,0.0,0.0,60,0.00,,---,0.00,VWS V14.00,2013-08-29 16:26:00,
2013-08-29 11:31:00,88.0,71.9,30.05,SE,144,0.0,0.0,59,0.00,,---,0.00,VWS V14.00,2013-08-29 16:31:00,
2013-08-29 11:36:00,88.2,72.1,30.05,SE,144,0.0,0.0,59,0.00,,---,0.00,VWS V14.00,2013-08-29 16:36:00,
2013-08-29 11:41:00,88.0,72.4,30.05,SE,144,0.0,0.0,60,0.00,,---,0.00,VWS V14.00,2013-08-29 16:41:00,
2013-08-29 11:46:00,87.4,71.3,30.05,SE,144,0.0,0.0,59,0.00,,---,0.00,VWS V14.00,2013-08-29 16:46:00,
2013-08-29 11:51:00,87.6,72.0,30.05,SE,144,0.0,0.0,60,0.00,,---,0.00,VWS V14.00,2013-08-29 16:51:00,
2013-08-29 11:56:00,88.0,71.9,30.05,SE,144,0.0,0.0,59,0.00,,---,0.00,VWS V14.00,2013-08-29 16:56:00,
2013-08-29 12:01:00,88.2,72.6,30.05,SE,144,0.0,3.0,60,0.00,,---,0.00,VWS V14.00,2013-08-29 17:01:00,
2013-08-29 12:06:00,88.0,72.9,30.05,SE,144,0.0,0.0,61,0.00,,---,0.00,VWS V14.00,2013-08-29 17:06:00,
2013-08-29 12:11:00,88.6,71.9,30.05,SE,144,0.0,0.0,58,0.00,,---,0.00,VWS V14.00,2013-08-29 17:11:00,
2013-08-29 12:16:00,89.5,72.8,30.04,SE,144,0.0,0.0,58,0.00,,---,0.00,VWS V14.00,2013-08-29 17:16:00,
2013-08-29 12:21:00,89.9,71.6,30.04,SSE,164,3.0,7.0,55,0.00,,---,0.00,VWS V14.00,2013-08-29 17:21:00,
2013-08-29 12:26:00,89.9,71.0,30.04,SSW,196,0.0,2.0,54,0.00,,---,0.00,VWS V14.00,2013-08-29 17:26:00,
2013-08-29 12:31:00,89.5,70.7,30.04,SSW,202,0.0,0.0,54,0.00,,---,0.00,VWS V14.00,2013-08-29 17:31:00,
2013-08-29 12:36:00,89.3,69.9,30.04,SSW,202,0.0,0.0,53,0.00,,---,0.00,VWS V14.00,2013-08-29 17:36:00,
2013-08-29 12:41:00,89.9,70.5,30.04,SSW,202,0.0,0.0,53,0.00,,---,0.00,VWS V14.00,2013-08-29 17:41:00,
2013-08-29 12:46:00,90.3,70.9,30.03,SSW,202,0.0,0.0,53,0.00,,---,0.00,VWS V14.00,2013-08-29 17:46:00,
2013-08-29 12:51:00,90.7,70.1,30.03,SSW,202,0.0,0.0,51,0.00,,---,0.00,VWS V14.00,2013-08-29 17:51:00,
2013-08-29 12:56:00,91.0,69.8,30.03,SSW,205,0.0,3.0,50,0.00,,---,0.00,VWS V14.00,2013-08-29 17:56:00,
2013-08-29 13:01:00,91.2,69.4,30.03,SSW,207,0.0,0.0,49,0.00,,---,0.00,VWS V14.00,2013-08-29 18:01:00,
2013-08-29 13:06:00,91.4,70.7,30.03,SSW,207,0.0,0.0,51,0.00,,---,0.00,VWS V14.00,2013-08-29 18:06:00,
2013-08-29 13:11:00,91.4,70.2,30.03,SSW,207,0.0,0.0,50,0.00,,---,0.00,VWS V14.00,2013-08-29 18:11:00,
2013-08-29 13:16:00,91.4,69.6,30.03,SSW,207,0.0,0.0,49,0.00,,---,0.00,VWS V14.00,2013-08-29 18:16:00,
2013-08-29 13:21:00,91.2,69.4,30.03,SW,223,0.0,0.0,49,0.00,,---,0.00,VWS V14.00,2013-08-29 18:21:00,
2013-08-29 13:26:00,90.7,68.9,30.02,SW,223,0.0,0.0,49,0.00,,---,0.00,VWS V14.00,2013-08-29 18:26:00,
2013-08-29 13:31:00,90.7,68.9,30.02,SW,232,1.0,4.0,49,0.00,,---,0.00,VWS V14.00,2013-08-29 18:31:00,
2013-08-29 13:36:00,90.7,69.5,30.02,SW,232,0.0,0.0,50,0.00,,---,0.00,VWS V14.00,2013-08-29 18:36:00,
2013-08-29 13:41:00,90.5,69.3,30.02,SW,232,0.0,0.0,50,0.00,,---,0.00,VWS V14.00,2013-08-29 18:41:00,
2013-08-29 13:46:00,90.7,68.9,30.02,SW,232,0.0,0.0,49,0.00,,---,0.00,VWS V14.00,2013-08-29 18:46:00,
2013-08-29 13:51:00,91.4,69.6,30.02,SW,232,0.0,3.0,49,0.00,,---,0.00,VWS V14.00,2013-08-29 18:51:00,
2013-08-29 13:56:00,91.2,68.8,30.02,SW,232,0.0,1.0,48,0.00,,---,0.00,VWS V14.00,2013-08-29 18:56:00,
2013-08-29 14:01:00,91.2,69.4,30.02,SW,232,0.0,0.0,49,0.00,,---,0.00,VWS V14.00,2013-08-29 19:01:00,
2013-08-29 14:06:00,91.2,68.2,30.02,SW,232,5.0,5.0,47,0.00,,---,0.00,VWS V14.00,2013-08-29 19:06:00,
2013-08-29 14:11:00,91.2,68.8,30.01,WSW,237,0.0,0.0,48,0.00,,---,0.00,VWS V14.00,2013-08-29 19:11:00,
2013-08-29 14:16:00,91.4,69.0,30.01,WSW,237,0.0,0.0,48,0.00,,---,0.00,VWS V14.00,2013-08-29 19:16:00,
2013-08-29 14:21:00,91.4,67.1,30.01,WSW,237,0.0,0.0,45,0.00,,---,0.00,VWS V14.00,2013-08-29 19:21:00,
2013-08-29 14:26:00,91.6,67.3,30.01,WSW,237,0.0,0.0,45,0.00,,---,0.00,VWS V14.00,2013-08-29 19:26:00,
2013-08-29 14:31:00,92.1,69.0,30.00,WSW,237,1.0,3.0,47,0.00,,---,0.00,VWS V14.00,2013-08-29 19:31:00,
2013-08-29 14:36:00,91.8,67.4,30.00,WSW,238,0.0,1.0,45,0.00,,---,0.00,VWS V14.00,2013-08-29 19:36:00,
2013-08-29 14:41:00,91.8,68.1,30.00,WSW,238,0.0,0.0,46,0.00,,---,0.00,VWS V14.00,2013-08-29 19:41:00,
2013-08-29 14:46:00,92.1,68.4,30.00,WSW,238,0.0,0.0,46,0.00,,---,0.00,VWS V14.00,2013-08-29 19:46:00,
2013-08-29 14:51:00,91.8,68.1,30.00,WSW,252,2.0,7.0,46,0.00,,---,0.00,VWS V14.00,2013-08-29 19:51:00,
2013-08-29 14:56:00,91.4,67.7,30.00,WSW,257,1.0,5.0,46,0.00,,---,0.00,VWS V14.00,2013-08-29 19:56:00,
2013-08-29 15:00:00,91.4,68.3,30.00,West,262,5.0,9.0,47,0.00,,---,0.00,VWS V14.00,2013-08-29 20:00:00,
2013-08-29 15:06:00,91.4,67.1,29.99,NW,309,6.0,9.0,45,0.00,,---,0.00,VWS V14.00,2013-08-29 20:06:00,
2013-08-29 15:11:00,91.4,68.3,29.99,NW,309,0.0,2.0,47,0.00,,---,0.00,VWS V14.00,2013-08-29 20:11:00,
2013-08-29 15:15:00,91.6,67.9,29.99,NW,309,2.0,4.0,46,0.00,,---,0.00,VWS V14.00,2013-08-29 20:15:00,
2013-08-29 15:20:00,91.6,67.9,29.99,NW,309,0.0,0.0,46,0.00,,---,0.00,VWS V14.00,2013-08-29 20:20:00,
2013-08-29 15:25:00,92.1,68.4,29.99,NW,309,0.0,0.0,46,0.00,,---,0.00,VWS V14.00,2013-08-29 20:25:00,
2013-08-29 15:30:00,92.3,68.5,29.99,NW,309,0.0,0.0,46,0.00,,---,0.00,VWS V14.00,2013-08-29 20:30:00,
2013-08-29 15:35:00,92.1,67.7,29.99,NW,309,3.0,4.0,45,0.00,,---,0.00,VWS V14.00,2013-08-29 20:35:00,
2013-08-29 15:40:00,91.8,68.1,29.99,NW,309,6.0,6.0,46,0.00,,---,0.00,VWS V14.00,2013-08-29 20:40:00,
2013-08-29 15:45:00,91.6,67.3,29.99,NW,309,0.0,0.0,45,0.00,,---,0.00,VWS V14.00,2013-08-29 20:45:00,
2013-08-29 15:50:00,91.8,66.8,29.99,NW,309,0.0,0.0,44,0.00,,---,0.00,VWS V14.00,2013-08-29 20:50:00,
2013-08-29 15:55:00,92.1,67.7,29.99,NW,309,1.0,5.0,45,0.00,,---,0.00,VWS V14.00,2013-08-29 20:55:00,
2013-08-29 16:00:00,91.8,66.8,29.99,NW,309,0.0,3.0,44,0.00,,---,0.00,VWS V14.00,2013-08-29 21:00:00,
2013-08-29 16:05:00,91.8,67.4,29.99,NW,309,1.0,1.0,45,0.00,,---,0.00,VWS V14.00,2013-08-29 21:05:00,
2013-08-29 16:10:00,92.1,67.7,29.98,NW,309,1.0,3.0,45,0.00,,---,0.00,VWS V14.00,2013-08-29 21:10:00,
2013-08-29 16:15:00,92.3,67.9,29.98,NW,309,5.0,5.0,45,0.00,,---,0.00,VWS V14.00,2013-08-29 21:15:00,
2013-08-29 16:20:00,92.1,67.1,29.98,NW,309,0.0,0.0,44,0.00,,---,0.00,VWS V14.00,2013-08-29 21:20:00,
2013-08-29 16:25:00,92.5,67.4,29.97,NW,309,0.0,0.0,44,0.00,,---,0.00,VWS V14.00,2013-08-29 21:25:00,
2013-08-29 16:30:00,92.7,68.3,29.98,NW,309,0.0,0.0,45,0.00,,---,0.00,VWS V14.00,2013-08-29 21:30:00,
2013-08-29 16:35:00,92.7,67.6,29.98,NW,309,3.0,3.0,44,0.00,,---,0.00,VWS V14.00,2013-08-29 21:35:00,
2013-08-29 16:40:00,92.3,67.2,29.98,NW,309,0.0,0.0,44,0.00,,---,0.00,VWS V14.00,2013-08-29 21:40:00,
2013-08-29 16:45:00,92.1,67.7,29.97,NW,309,0.0,0.0,45,0.00,,---,0.00,VWS V14.00,2013-08-29 21:45:00,
2013-08-29 16:50:00,92.3,67.9,29.97,NW,309,0.0,0.0,45,0.00,,---,0.00,VWS V14.00,2013-08-29 21:50:00,
2013-08-29 16:55:00,92.3,67.9,29.97,NW,309,0.0,0.0,45,0.00,,---,0.00,VWS V14.00,2013-08-29 21:55:00,
2013-08-29 17:00:00,92.1,68.4,29.97,NW,309,0.0,0.0,46,0.00,,---,0.00,VWS V14.00,2013-08-29 22:00:00,
2013-08-29 17:05:00,92.1,68.4,29.97,NW,309,0.0,0.0,46,0.00,,---,0.00,VWS V14.00,2013-08-29 22:05:00,
2013-08-29 17:10:00,92.1,67.7,29.97,NW,309,0.0,0.0,45,0.00,,---,0.00,VWS V14.00,2013-08-29 22:10:00,
2013-08-29 17:15:00,92.1,67.7,29.97,NW,309,0.0,0.0,45,0.00,,---,0.00,VWS V14.00,2013-08-29 22:15:00,
2013-08-29 17:20:00,92.5,68.1,29.97,NW,309,0.0,0.0,45,0.00,,---,0.00,VWS V14.00,2013-08-29 22:20:00,
2013-08-29 17:25:00,92.7,68.3,29.97,NW,309,0.0,0.0,45,0.00,,---,0.00,VWS V14.00,2013-08-29 22:25:00,
2013-08-29 17:30:00,92.5,68.7,29.97,NW,309,0.0,0.0,46,0.00,,---,0.00,VWS V14.00,2013-08-29 22:30:00,
2013-08-29 17:35:00,92.1,69.6,29.97,NW,309,0.0,0.0,48,0.00,,---,0.00,VWS V14.00,2013-08-29 22:35:00,
2013-08-29 17:40:00,91.8,69.3,29.96,NW,309,0.0,0.0,48,0.00,,---,0.00,VWS V14.00,2013-08-29 22:40:00,
2013-08-29 17:45:00,91.6,69.8,29.96,NW,309,0.0,0.0,49,0.00,,---,0.00,VWS V14.00,2013-08-29 22:45:00,
2013-08-29 17:50:00,91.6,70.3,29.97,NW,309,0.0,0.0,50,0.00,,---,0.00,VWS V14.00,2013-08-29 22:50:00,
2013-08-29 17:55:00,91.4,70.2,29.97,NW,309,0.0,0.0,50,0.00,,---,0.00,VWS V14.00,2013-08-29 22:55:00,
2013-08-29 18:00:00,91.2,70.6,29.97,NW,309,0.0,0.0,51,0.00,,---,0.00,VWS V14.00,2013-08-29 23:00:00,
2013-08-29 18:05:00,91.0,70.4,29.97,NW,309,0.0,0.0,51,0.00,,---,0.00,VWS V14.00,2013-08-29 23:05:00,
2013-08-29 18:10:00,90.3,72.5,29.96,NW,309,0.0,0.0,56,0.00,,---,0.00,VWS V14.00,2013-08-29 23:10:00,
2013-08-29 18:15:00,89.5,72.8,29.97,NW,309,0.0,0.0,58,0.00,,---,0.00,VWS V14.00,2013-08-29 23:15:00,
2013-08-29 18:20:00,88.4,72.3,29.97,NW,309,0.0,0.0,59,0.00,,---,0.00,VWS V14.00,2013-08-29 23:20:00,
2013-08-29 18:25:00,87.4,73.3,29.97,NW,309,0.0,0.0,63,0.00,,---,0.00,VWS V14.00,2013-08-29 23:25:00,
2013-08-29 18:30:00,86.5,73.3,29.97,NW,309,0.0,0.0,65,0.00,,---,0.00,VWS V14.00,2013-08-29 23:30:00,
2013-08-29 18:35:00,85.7,73.0,29.98,NW,309,0.0,0.0,66,0.00,,---,0.00,VWS V14.00,2013-08-29 23:35:00,
2013-08-29 18:40:00,84.9,72.7,29.98,NW,309,0.0,0.0,67,0.00,,---,0.00,VWS V14.00,2013-08-29 23:40:00,
2013-08-29 18:45:00,84.3,73.0,29.98,NW,309,0.0,0.0,69,0.00,,---,0.00,VWS V14.00,2013-08-29 23:45:00,
2013-08-29 18:50:00,84.0,73.2,29.98,NW,309,0.0,0.0,70,0.00,,---,0.00,VWS V14.00,2013-08-29 23:50:00,
2013-08-29 18:55:00,83.6,73.6,29.98,NW,309,0.0,0.0,72,0.00,,---,0.00,VWS V14.00,2013-08-29 23:55:00,
2013-08-29 19:00:00,83.4,73.4,29.98,NW,309,0.0,0.0,72,0.00,,---,0.00,VWS V14.00,2013-08-30 00:00:00,
2013-08-29 19:05:00,83.2,73.7,29.98,NW,309,0.0,0.0,73,0.00,,---,0.00,VWS V14.00,2013-08-30 00:05:00,
2013-08-29 19:10:00,83.0,73.5,29.98,NW,309,0.0,0.0,73,0.00,,---,0.00,VWS V14.00,2013-08-30 00:10:00,
2013-08-29 19:15:00,83.0,73.9,29.98,NW,309,0.0,0.0,74,0.00,,---,0.00,VWS V14.00,2013-08-30 00:15:00,
2013-08-29 19:20:00,82.8,74.1,29.98,NW,309,0.0,0.0,75,0.00,,---,0.00,VWS V14.00,2013-08-30 00:20:00,
2013-08-29 19:25:00,82.6,73.9,29.98,NW,309,0.0,0.0,75,0.00,,---,0.00,VWS V14.00,2013-08-30 00:25:00,
2013-08-29 19:30:00,82.6,73.9,29.98,NW,309,0.0,0.0,75,0.00,,---,0.00,VWS V14.00,2013-08-30 00:30:00,
2013-08-29 19:35:00,82.4,74.1,29.98,NW,309,0.0,0.0,76,0.00,,---,0.00,VWS V14.00,2013-08-30 00:35:00,
2013-08-29 19:40:00,82.2,73.9,29.98,NW,309,0.0,0.0,76,0.00,,---,0.00,VWS V14.00,2013-08-30 00:40:00,
2013-08-29 19:45:00,81.8,73.9,29.98,NW,309,0.0,0.0,77,0.00,,---,0.00,VWS V14.00,2013-08-30 00:45:00,
2013-08-29 19:50:00,81.6,73.7,29.98,NW,309,0.0,0.0,77,0.00,,---,0.00,VWS V14.00,2013-08-30 00:50:00,
2013-08-29 19:55:00,81.4,73.9,29.98,NW,309,0.0,0.0,78,0.00,,---,0.00,VWS V14.00,2013-08-30 00:55:00,
2013-08-29 20:00:00,81.2,73.7,29.98,NW,309,0.0,0.0,78,0.00,,---,0.00,VWS V14.00,2013-08-30 01:00:00,
2013-08-29 20:05:00,81.1,73.6,29.98,NW,309,0.0,0.0,78,0.00,,---,0.00,VWS V14.00,2013-08-30 01:05:00,
2013-08-29 20:10:00,80.9,73.8,29.98,NW,309,0.0,0.0,79,0.00,,---,0.00,VWS V14.00,2013-08-30 01:10:00,
2013-08-29 20:15:00,80.7,73.6,29.98,NW,309,0.0,0.0,79,0.00,,---,0.00,VWS V14.00,2013-08-30 01:15:00,
2013-08-29 20:20:00,80.5,73.8,29.98,NW,309,0.0,0.0,80,0.00,,---,0.00,VWS V14.00,2013-08-30 01:20:00,
2013-08-29 20:25:00,80.3,73.9,29.99,NW,309,0.0,0.0,81,0.00,,---,0.00,VWS V14.00,2013-08-30 01:25:00,
2013-08-29 20:30:00,80.1,73.8,29.99,NW,309,0.0,0.0,81,0.00,,---,0.00,VWS V14.00,2013-08-30 01:30:00,
2013-08-29 20:35:00,79.9,73.9,29.99,NW,309,0.0,0.0,82,0.00,,---,0.00,VWS V14.00,2013-08-30 01:35:00,
2013-08-29 20:40:00,79.8,73.8,29.99,NW,309,0.0,0.0,82,0.00,,---,0.00,VWS V14.00,2013-08-30 01:40:00,
2013-08-29 20:45:00,79.6,74.0,29.99,NW,309,0.0,0.0,83,0.00,,---,0.00,VWS V14.00,2013-08-30 01:45:00,
2013-08-29 20:50:00,79.6,74.3,29.99,NW,309,0.0,0.0,84,0.00,,---,0.00,VWS V14.00,2013-08-30 01:50:00,
2013-08-29 20:55:00,79.4,74.2,29.99,NW,309,0.0,0.0,84,0.00,,---,0.00,VWS V14.00,2013-08-30 01:55:00,
2013-08-29 21:00:00,79.2,74.3,29.99,NW,309,0.0,0.0,85,0.00,,---,0.00,VWS V14.00,2013-08-30 02:00:00,
2013-08-29 21:05:00,79.2,74.3,29.99,NW,309,0.0,0.0,85,0.00,,---,0.00,VWS V14.00,2013-08-30 02:05:00,
2013-08-29 21:10:00,79.0,74.5,29.99,NW,309,0.0,0.0,86,0.00,,---,0.00,VWS V14.00,2013-08-30 02:10:00,
2013-08-29 21:15:00,79.0,74.5,29.99,NW,309,0.0,0.0,86,0.00,,---,0.00,VWS V14.00,2013-08-30 02:15:00,
2013-08-29 21:20:00,78.8,74.3,29.99,NW,309,0.0,0.0,86,0.00,,---,0.00,VWS V14.00,2013-08-30 02:20:00,
2013-08-29 21:25:00,78.6,74.1,29.99,NW,309,0.0,0.0,86,0.00,,---,0.00,VWS V14.00,2013-08-30 02:25:00,
2013-08-29 21:30:00,78.6,74.1,29.99,NW,309,0.0,0.0,86,0.00,,---,0.00,VWS V14.00,2013-08-30 02:30:00,
2013-08-29 21:35:00,78.5,74.3,29.99,NW,309,0.0,0.0,87,0.00,,---,0.00,VWS V14.00,2013-08-30 02:35:00,
2013-08-29 21:40:00,78.3,74.1,29.99,NW,309,0.0,0.0,87,0.00,,---,0.00,VWS V14.00,2013-08-30 02:40:00,
2013-08-29 21:45:00,78.3,74.1,29.99,NW,309,0.0,0.0,87,0.00,,---,0.00,VWS V14.00,2013-08-30 02:45:00,
2013-08-29 21:50:00,78.3,74.1,29.99,NW,309,0.0,0.0,87,0.00,,---,0.00,VWS V14.00,2013-08-30 02:50:00,
2013-08-29 21:55:00,78.1,73.9,29.99,NW,309,0.0,0.0,87,0.00,,---,0.00,VWS V14.00,2013-08-30 02:55:00,
2013-08-29 22:00:00,78.1,73.9,29.98,NW,309,0.0,0.0,87,0.00,,---,0.00,VWS V14.00,2013-08-30 03:00:00,
2013-08-29 22:05:00,77.9,73.7,29.98,NW,309,0.0,0.0,87,0.00,,---,0.00,VWS V14.00,2013-08-30 03:05:00,
2013-08-29 22:10:00,77.9,73.7,29.98,NW,309,0.0,0.0,87,0.00,,---,0.00,VWS V14.00,2013-08-30 03:10:00,
2013-08-29 22:15:00,77.7,73.5,29.98,NW,309,0.0,0.0,87,0.00,,---,0.00,VWS V14.00,2013-08-30 03:15:00,
2013-08-29 22:20:00,77.6,73.8,29.98,NW,309,0.0,0.0,88,0.00,,---,0.00,VWS V14.00,2013-08-30 03:20:00,
2013-08-29 22:25:00,77.4,73.6,29.98,NW,309,0.0,0.0,88,0.00,,---,0.00,VWS V14.00,2013-08-30 03:25:00,
2013-08-29 22:30:00,77.2,73.4,29.98,NW,309,0.0,0.0,88,0.00,,---,0.00,VWS V14.00,2013-08-30 03:30:00,
2013-08-29 22:35:00,77.2,73.7,29.98,NW,309,0.0,0.0,89,0.00,,---,0.00,VWS V14.00,2013-08-30 03:35:00,
2013-08-29 22:40:00,77.2,73.7,29.98,NW,309,0.0,0.0,89,0.00,,---,0.00,VWS V14.00,2013-08-30 03:40:00,
2013-08-29 22:45:00,77.0,73.5,29.98,NW,309,0.0,0.0,89,0.00,,---,0.00,VWS V14.00,2013-08-30 03:45:00,
2013-08-29 22:50:00,76.8,73.3,29.98,NW,309,0.0,0.0,89,0.00,,---,0.00,VWS V14.00,2013-08-30 03:50:00,
2013-08-29 22:55:00,76.8,73.3,29.99,NW,309,0.0,0.0,89,0.00,,---,0.00,VWS V14.00,2013-08-30 03:55:00,
2013-08-29 23:00:00,76.7,73.2,29.98,NW,309,0.0,0.0,89,0.00,,---,0.00,VWS V14.00,2013-08-30 04:00:00,
2013-08-29 23:01:00,76.7,73.2,29.98,NW,309,0.0,0.0,89,0.00,,---,0.00,VWS V14.00,2013-08-30 04:01:00,
2013-08-29 23:06:00,76.7,73.6,29.98,NW,309,0.0,0.0,90,0.00,,---,0.00,VWS V14.00,2013-08-30 04:06:00,
2013-08-29 23:11:00,76.5,73.3,29.98,NW,309,0.0,0.0,90,0.00,,---,0.00,VWS V14.00,2013-08-30 04:11:00,
2013-08-29 23:16:00,76.5,73.3,29.98,NW,309,0.0,0.0,90,0.00,,---,0.00,VWS V14.00,2013-08-30 04:16:00,
2013-08-29 23:21:00,76.5,73.3,29.98,NW,309,0.0,0.0,90,0.00,,---,0.00,VWS V14.00,2013-08-30 04:21:00,
2013-08-29 23:26:00,76.3,73.2,29.98,NW,309,0.0,0.0,90,0.00,,---,0.00,VWS V14.00,2013-08-30 04:26:00,
2013-08-29 23:31:00,76.3,73.5,29.98,NW,309,0.0,0.0,91,0.00,,---,0.00,VWS V14.00,2013-08-30 04:31:00,
2013-08-29 23:36:00,76.1,73.3,29.98,NW,309,0.0,0.0,91,0.00,,---,0.00,VWS V14.00,2013-08-30 04:36:00,
2013-08-29 23:41:00,76.1,73.3,29.98,NW,309,0.0,0.0,91,0.00,,---,0.00,VWS V14.00,2013-08-30 04:41:00,
2013-08-29 23:46:00,76.0,73.2,29.98,NW,309,0.0,0.0,91,0.00,,---,0.00,VWS V14.00,2013-08-30 04:46:00,
2013-08-29 23:51:00,76.0,73.2,29.98,NW,309,0.0,0.0,91,0.00,,---,0.00,VWS V14.00,2013-08-30 04:51:00,
2013-08-29 23:56:00,76.0,73.2,29.98,NW,309,0.0,0.0,91,0.00,,---,0.00,VWS V14.00,2013-08-30 04:56:00,